Powrót do katalogu

CZ-6A DEB

AktywnyPO
NORAD 64656·DEBRIS·🇨🇳 China

Wystrzelony Aug 6, 2024 z Taiyuan Satellite Launch Center

Loading…

Następne Przeloty (najbliższe 24 godziny)

TLE

ŚwieżeSource: Space-Track

Epoka: Sep 13, 2026, 11:27 UTC

1 64656U 24140AEW 26256.47726120  .00002986  00000-0  10272-2 0  9997
2 64656  89.0203 265.1307 0016250 180.6079 179.5103 14.35731821 98615

Śledź CZ-6A DEB w czasie rzeczywistym z AllMySat

Download on the App Store